Total_Precipitation_Accumulation
0.11 0.08 0.09 0.12 0.08 0.04 0.01 0.00 0.00 0.00 0.00 0.00 0.00 0.00 0.00 0.01 0.01 0.02 0.02 0.02 0.02 0.04 0.13 0.28 0.42 0.48 0.52 0.53 0.51 0.48 0.50 0.52 0.54 0.55 0.53 0.49 0.47 0.47 0.51 0.52 0.52 0.52 0.51 0.54 0.60 0.64 0.64 0.60 0.54
0.13 0.13 0.15 0.16 0.07 0.02 0.00 0.00 0.00 0.00 0.00 0.00 0.00 0.00 0.00 0.01 0.01 0.01 0.03 0.02 0.02 0.05 0.13 0.22 0.38 0.46 0.51 0.52 0.52 0.54 0.56 0.58 0.64 0.64 0.59 0.54 0.50 0.48 0.51 0.52 0.51 0.52 0.50 0.50 0.52 0.51 0.51 0.46 0.39
0.21 0.24 0.22 0.17 0.06 0.01 0.00 0.00 0.00 0.00 0.00 0.00 0.00 0.00 0.01 0.01 0.01 0.01 0.02 0.04 0.04 0.06 0.13 0.26 0.41 0.50 0.52 0.57 0.58 0.59 0.60 0.65 0.71 0.71 0.68 0.67 0.63 0.56 0.53 0.51 0.51 0.48 0.47 0.46 0.47 0.43 0.43 0.41 0.38
0.31 0.33 0.27 0.15 0.03 0.01 0.00 0.00 0.00 0.00 0.00 0.00 0.00 0.00 0.01 0.01 0.01 0.02 0.03 0.05 0.05 0.08 0.15 0.29 0.43 0.54 0.57 0.59 0.59 0.61 0.63 0.68 0.73 0.71 0.69 0.70 0.73 0.65 0.56 0.52 0.51 0.47 0.45 0.46 0.45 0.42 0.42 0.39 0.36
0.43 0.37 0.26 0.11 0.02 0.00 0.00 0.00 0.00 0.00 0.00 0.00 0.00 0.01 0.02 0.02 0.02 0.03 0.05 0.06 0.07 0.11 0.18 0.31 0.49 0.61 0.66 0.66 0.67 0.69 0.71 0.73 0.72 0.71 0.69 0.70 0.72 0.71 0.61 0.52 0.49 0.45 0.43 0.45 0.45 0.40 0.41 0.41 0.39
0.51 0.40 0.21 0.07 0.01 0.00 0.00 0.00 0.00 0.00 0.00 0.00 0.01 0.01 0.03 0.05 0.04 0.04 0.05 0.07 0.10 0.14 0.22 0.35 0.60 0.71 0.74 0.78 0.73 0.75 0.79 0.82 0.79 0.73 0.71 0.73 0.74 0.70 0.67 0.58 0.52 0.48 0.45 0.43 0.39 0.34 0.33 0.36 0.39
0.58 0.40 0.18 0.05 0.02 0.01 0.01 0.00 0.00 0.00 0.00 0.01 0.01 0.03 0.05 0.09 0.09 0.08 0.08 0.09 0.12 0.18 0.28 0.41 0.62 0.76 0.87 0.90 0.84 0.82 0.82 0.86 0.85 0.79 0.75 0.73 0.74 0.69 0.66 0.62 0.56 0.49 0.46 0.44 0.38 0.32 0.30 0.30 0.30
0.63 0.53 0.24 0.07 0.03 0.02 0.01 0.01 0.01 0.01 0.01 0.01 0.02 0.04 0.05 0.10 0.12 0.14 0.15 0.15 0.18 0.25 0.35 0.47 0.62 0.75 0.87 0.96 0.94 0.90 0.86 0.86 0.88 0.83 0.80 0.76 0.75 0.76 0.70 0.61 0.60 0.55 0.49 0.48 0.44 0.39 0.34 0.32 0.29
0.78 0.71 0.33 0.10 0.05 0.04 0.02 0.03 0.03 0.02 0.03 0.03 0.03 0.04 0.06 0.11 0.16 0.21 0.26 0.28 0.29 0.36 0.45 0.55 0.65 0.79 0.92 0.99 0.97 1.01 0.99 0.98 0.98 0.91 0.87 0.86 0.85 0.83 0.77 0.64 0.59 0.59 0.56 0.52 0.49 0.44 0.41 0.37 0.29
0.87 0.67 0.29 0.10 0.08 0.07 0.05 0.05 0.04 0.05 0.05 0.05 0.05 0.08 0.12 0.18 0.26 0.26 0.25 0.28 0.31 0.38 0.50 0.61 0.69 0.81 1.00 1.08 1.11 1.19 1.11 1.03 1.02 0.89 0.85 0.85 0.88 0.92 0.82 0.73 0.65 0.63 0.61 0.60 0.57 0.50 0.46 0.40 0.29
0.72 0.50 0.24 0.13 0.12 0.13 0.10 0.07 0.06 0.07 0.06 0.06 0.08 0.10 0.16 0.22 0.29 0.30 0.27 0.28 0.31 0.40 0.53 0.63 0.74 0.88 1.03 1.09 1.12 1.15 1.16 1.06 1.04 0.99 0.88 0.85 0.90 0.90 0.91 0.85 0.83 0.76 0.68 0.66 0.65 0.63 0.55 0.48 0.39
0.61 0.39 0.26 0.19 0.16 0.18 0.17 0.14 0.11 0.08 0.06 0.07 0.10 0.13 0.17 0.23 0.25 0.28 0.33 0.34 0.38 0.47 0.59 0.70 0.82 0.97 1.10 1.15 1.19 1.15 1.08 1.03 0.97 1.03 1.02 0.95 0.88 0.83 0.80 0.78 0.73 0.71 0.66 0.65 0.65 0.60 0.57 0.58 0.53
0.57 0.41 0.28 0.21 0.18 0.19 0.19 0.18 0.16 0.09 0.05 0.08 0.12 0.17 0.19 0.23 0.23 0.28 0.37 0.41 0.42 0.47 0.61 0.72 0.86 0.96 1.13 1.29 1.27 1.24 1.12 1.01 0.99 1.02 1.03 0.99 0.90 0.81 0.77 0.73 0.74 0.69 0.61 0.58 0.58 0.50 0.44 0.45 0.47
0.50 0.42 0.34 0.26 0.22 0.21 0.22 0.19 0.19 0.11 0.10 0.12 0.15 0.17 0.21 0.24 0.28 0.32 0.36 0.42 0.47 0.50 0.61 0.73 0.87 0.96 1.08 1.24 1.28 1.29 1.25 1.19 1.16 1.07 1.01 1.01 0.98 0.89 0.81 0.76 0.73 0.71 0.66 0.62 0.57 0.51 0.44 0.38 0.35
0.52 0.54 0.43 0.30 0.25 0.24 0.28 0.27 0.20 0.13 0.16 0.16 0.17 0.18 0.22 0.28 0.32 0.34 0.35 0.38 0.48 0.57 0.67 0.77 0.88 1.02 1.06 1.12 1.29 1.35 1.36 1.32 1.31 1.19 1.12 1.12 1.06 1.02 0.93 0.86 0.79 0.71 0.65 0.63 0.62 0.56 0.50 0.44 0.38
0.70 0.77 0.60 0.34 0.27 0.28 0.41 0.36 0.17 0.16 0.24 0.24 0.20 0.21 0.27 0.31 0.35 0.37 0.38 0.41 0.53 0.64 0.75 0.89 0.91 1.00 1.05 1.05 1.20 1.32 1.38 1.42 1.44 1.43 1.32 1.25 1.19 1.12 1.06 0.99 0.96 0.90 0.80 0.69 0.63 0.57 0.52 0.47 0.42
0.98 0.86 0.57 0.37 0.30 0.35 0.43 0.37 0.20 0.17 0.24 0.27 0.24 0.25 0.30 0.36 0.39 0.39 0.41 0.44 0.52 0.60 0.76 0.95 1.00 1.01 1.07 1.11 1.18 1.34 1.38 1.39 1.48 1.59 1.55 1.45 1.39 1.26 1.17 1.11 1.07 1.11 1.06 0.89 0.74 0.63 0.54 0.50 0.45
0.95 0.68 0.47 0.39 0.33 0.38 0.42 0.35 0.23 0.21 0.22 0.23 0.25 0.27 0.31 0.35 0.36 0.37 0.42 0.51 0.57 0.61 0.78 0.97 1.11 1.15 1.17 1.24 1.24 1.35 1.46 1.38 1.36 1.47 1.55 1.57 1.54 1.42 1.34 1.22 1.11 1.13 1.17 1.12 0.96 0.76 0.64 0.56 0.52
0.65 0.63 0.50 0.37 0.36 0.41 0.40 0.36 0.29 0.23 0.23 0.22 0.20 0.24 0.32 0.32 0.32 0.36 0.42 0.55 0.64 0.69 0.78 0.93 1.08 1.20 1.22 1.26 1.24 1.20 1.28 1.32 1.25 1.22 1.40 1.60 1.68 1.66 1.57 1.41 1.30 1.21 1.16 1.11 1.05 0.97 0.85 0.72 0.63
0.68 0.69 0.53 0.38 0.38 0.47 0.45 0.41 0.32 0.24 0.23 0.21 0.20 0.22 0.30 0.32 0.35 0.38 0.42 0.53 0.60 0.70 0.76 0.87 1.03 1.14 1.14 1.12 1.17 1.17 1.22 1.26 1.28 1.23 1.28 1.45 1.65 1.77 1.87 1.73 1.53 1.39 1.29 1.22 1.14 1.06 1.04 0.94 0.79
0.71 0.62 0.50 0.47 0.48 0.55 0.58 0.54 0.34 0.25 0.22 0.22 0.23 0.25 0.31 0.32 0.35 0.38 0.40 0.47 0.54 0.67 0.72 0.72 0.89 1.13 1.17 1.15 1.26 1.31 1.41 1.46 1.43 1.34 1.26 1.32 1.45 1.52 1.61 1.71 1.55 1.49 1.43 1.34 1.25 1.16 1.13 1.10 0.96
0.67 0.40 0.41 0.50 0.65 0.69 0.62 0.77 0.41 0.27 0.24 0.22 0.24 0.28 0.32 0.33 0.34 0.39 0.40 0.48 0.53 0.65 0.77 0.73 0.78 1.01 1.24 1.23 1.23 1.25 1.31 1.37 1.36 1.28 1.23 1.25 1.37 1.45 1.45 1.54 1.57 1.39 1.31 1.26 1.21 1.18 1.11 1.12 1.10
0.51 0.36 0.42 0.57 0.75 0.75 0.60 0.75 0.48 0.27 0.27 0.23 0.20 0.22 0.26 0.30 0.34 0.40 0.42 0.50 0.57 0.68 0.81 0.81 0.86 0.93 1.15 1.21 1.16 1.18 1.21 1.26 1.37 1.37 1.29 1.27 1.36 1.47 1.50 1.48 1.52 1.53 1.34 1.17 1.11 1.13 1.15 1.12 1.07
0.47 0.55 0.68 0.80 1.04 1.10 0.49 0.52 0.51 0.39 0.39 0.29 0.23 0.23 0.25 0.29 0.35 0.40 0.44 0.54 0.63 0.73 0.86 0.88 0.91 0.90 1.01 1.22 1.18 1.10 1.12 1.15 1.25 1.36 1.43 1.40 1.38 1.44 1.49 1.51 1.46 1.44 1.45 1.35 1.18 1.10 1.12 1.09 1.06
0.76 1.10 1.66 1.77 1.61 0.93 0.28 0.33 0.48 0.39 0.37 0.32 0.27 0.28 0.27 0.29 0.32 0.37 0.44 0.57 0.62 0.71 0.83 0.89 0.88 0.88 0.89 1.06 1.15 1.10 1.06 1.06 1.09 1.21 1.31 1.37 1.39 1.36 1.39 1.45 1.45 1.40 1.36 1.36 1.29 1.19 1.14 1.10 1.08
0.80 0.96 1.28 1.24 0.79 0.36 0.20 0.31 0.38 0.31 0.25 0.25 0.25 0.27 0.28 0.26 0.27 0.32 0.38 0.49 0.59 0.65 0.75 0.84 0.87 0.86 0.85 0.95 1.08 1.13 1.11 1.11 1.03 1.10 1.21 1.27 1.28 1.26 1.24 1.27 1.28 1.25 1.20 1.20 1.22 1.19 1.12 1.11 1.13
0.69 0.70 0.63 0.86 0.58 0.37 0.28 0.27 0.27 0.20 0.18 0.21 0.24 0.26 0.27 0.27 0.29 0.32 0.36 0.41 0.48 0.59 0.68 0.73 0.85 0.90 0.89 0.88 1.01 1.17 1.24 1.19 1.08 1.03 1.12 1.17 1.18 1.20 1.23 1.23 1.19 1.10 1.06 1.04 1.04 1.06 1.04 1.06 1.08
0.61 0.67 0.80 1.11 0.92 0.54 0.29 0.27 0.39 0.31 0.27 0.24 0.24 0.24 0.23 0.27 0.32 0.35 0.37 0.41 0.45 0.50 0.58 0.65 0.76 0.86 0.90 0.85 0.91 1.05 1.27 1.32 1.21 1.17 1.08 1.09 1.09 1.12 1.15 1.19 1.18 1.12 1.03 1.01 1.01 0.96 0.91 0.96 0.99
0.64 0.81 0.99 1.03 0.79 0.66 0.41 0.36 0.41 0.37 0.31 0.25 0.21 0.20 0.21 0.23 0.27 0.30 0.34 0.41 0.45 0.47 0.54 0.61 0.68 0.76 0.82 0.78 0.82 0.92 1.09 1.32 1.36 1.27 1.16 1.04 1.03 1.02 1.02 1.05 1.09 1.09 1.06 1.02 1.06 1.01 0.93 0.94 0.94
0.60 0.71 0.85 1.04 0.78 0.51 0.45 0.37 0.26 0.25 0.25 0.22 0.19 0.18 0.18 0.21 0.23 0.25 0.29 0.38 0.43 0.45 0.50 0.56 0.63 0.69 0.75 0.75 0.77 0.84 0.94 1.11 1.34 1.30 1.17 1.04 1.00 1.01 1.02 1.00 1.04 1.05 1.07 1.07 1.07 1.02 0.95 0.95 0.94